[[[{"header":{"parameterUnit":"kt","parameterCategory":2,"dx":1,"dy":1,"la1":30.253999710083008,"la2":30.299108505249023,"lo1":-89.0895004272461,"lo2":-89.04439544677734,"nx":28,"ny":28,"refTime":"2022-10-29T21:00:00:Z","depth":0,"parameterNumber":1,"parameterNumberName":"U-component_of_WINDS"},"data":[5.9087,5.9197,5.9163,5.9276,5.9263,5.9334,5.9348,5.9364,5.9367,5.9451,5.9493,5.9469,5.9458,5.9501,5.9546,5.9534,5.9556,5.9626,5.96,5.932,5.9279,5.924,5.921,5.9631,5.9631,5.9894,5.9896,5.9898,5.8902,5.889,5.8937,5.8958,5.9,5.8914,5.8924,5.8964,5.903,5.9033,5.907,5.914,5.919,5.9152,5.9195,5.925,5.9211,5.9264,5.9259,5.9259,5.896,5.8929,5.9296,5.9296,5.9296,5.9296,5.9296,5.9296,5.8554,5.8621,5.861,5.866,5.866,5.8675,5.8732,5.8698,5.8743,5.8778,5.8724,5.8797,5.8792,5.882,5.882,5.8879,5.8811,5.8857,5.8869,5.8882,5.8904,5.8539,5.8883,5.8882,5.8881,5.888,5.8879,0,5.8288,5.8253,5.829,5.8321,5.8354,5.8373,5.8383,5.8417,5.8324,5.8365,5.8421,5.8447,5.8499,5.8548,5.8576,5.8563,5.8474,5.8459,5.8491,5.852,5.8546,5.8537,5.8053,5.8448,5.8444,5.8441,5.8439,5.8438,5.7937,5.8015,5.7982,5.8015,5.8008,5.8062,5.8086,5.7995,5.8025,5.8024,5.8088,5.8134,5.8165,5.8262,5.8216,5.8254,5.821,5.8366,5.8214,5.8243,5.8216,5.8212,5.8222,5.8397,5.8402,5.8406,5.841,0,5.7744,5.7675,5.7784,5.7738,5.773,5.7819,5.7781,5.7843,5.7797,5.7877,5.789,5.7819,5.7874,5.7801,5.7848,5.7809,5.7964,5.7918,5.7968,5.7955,5.809,5.8079,5.8531,5.8587,5.8148,5.8153,5.8156,0,5.7417,5.7522,5.7414,5.7479,5.7597,5.7498,5.7617,5.7588,5.7575,5.7635,5.7519,5.7579,5.7473,5.7525,5.7466,5.7578,5.7585,5.7562,5.7545,5.7572,5.7576,5.7585,5.7565,5.7498,5.7496,5.7494,5.7492,0,5.7121,5.7182,5.7289,5.7291,5.7248,5.7302,5.7287,5.7268,5.729,5.7307,5.7321,5.7348,5.7363,5.7389,5.7311,5.7212,5.7445,5.7291,5.7421,5.7424,5.7473,5.7471,5.7892,5.7489,5.7488,5.7488,5.7487,0,5.6843,5.6859,5.7021,5.6983,5.7003,5.7072,5.709,5.713,5.7119,5.7084,5.7096,5.7006,5.7092,5.6948,5.7068,5.696,5.6984,5.6967,5.6975,5.6977,5.6815,5.7065,5.7472,5.7512,5.6985,5.698,5.6976,0,5.6528,5.6668,5.658,5.6736,5.679,5.6653,5.6728,5.6718,5.6677,5.6719,5.6673,5.672,5.6594,5.6597,5.6667,5.6622,5.6762,5.66,5.6668,5.6671,5.6678,5.7051,5.7129,5.7391,5.6921,5.6927,5.6931,0,5.6271,5.621,5.6243,5.6241,5.6205,5.6247,5.6334,5.6355,5.6388,5.6385,5.6457,5.6518,5.6427,5.6432,5.6358,5.6435,5.6664,5.6325,5.6323,5.6392,5.6885,5.6961,5.7005,5.66,5.6606,5.6611,5.6888,0,5.5874,5.593,5.6015,5.6006,5.6025,5.6114,5.6025,5.6058,5.5985,5.5935,5.6036,5.6,5.602,5.6046,5.5973,5.617,5.6124,5.6024,5.5873,5.6119,5.6208,5.6244,5.5749,5.5744,5.574,5.5737,0,0,5.559,5.5665,5.5559,5.5633,5.5643,5.5492,5.5595,5.5586,5.557,5.5582,5.5498,5.5578,5.555,5.5681,5.575,5.5756,5.5785,5.5698,5.6002,5.6032,5.606,5.6157,5.6195,5.5729,5.5728,5.5726,5.5725,0,5.5424,5.5396,5.5496,5.5482,5.5455,5.5394,5.542,5.5365,5.5337,5.5429,5.5302,5.535,5.541,5.5401,5.5405,5.5682,5.5582,5.5695,5.5876,5.5963,5.5999,5.603,5.6133,5.6171,5.5715,5.5715,5.5716,0,5.5157,5.5115,5.5151,5.5158,5.5137,5.5192,5.5015,5.5077,5.5118,5.4944,5.5036,5.5004,5.498,5.5111,5.5166,5.509,5.5405,5.5285,5.5309,5.5313,5.5393,5.5436,5.5474,5.4971,5.4969,5.4967,0,0,5.5026,5.5073,5.4994,5.5114,5.5111,5.502,5.5037,5.4963,5.4942,5.4935,5.4887,5.4873,5.4908,5.4933,5.496,5.5115,5.5104,5.5198,5.5233,5.5262,5.5281,5.5369,5.5411,5.4959,5.4959,5.4958,0,0,5.4962,5.4874,5.4801,5.4928,5.4914,5.4843,5.4922,5.483,5.4843,5.4822,5.4698,5.4689,5.4808,5.4779,5.4679,5.4905,5.4758,5.478,5.4918,5.4961,5.4996,5.5,5.4488,0,0,0,0,0,5.4741,5.4885,5.482,5.4827,5.483,5.488,5.488,5.478,5.468,5.4746,5.4693,5.4581,5.4701,5.4609,5.4619,5.473,5.4851,5.487,5.4888,5.5103,5.5149,5.5188,0,0,0,0,0,0,5.4743,5.4752,5.4816,5.4752,5.4752,5.4874,5.4683,5.466,5.4671,5.4649,5.4596,5.458,5.4496,5.4597,5.4608,5.4716,5.4484,5.4859,5.4875,5.489,5.5119,5.5157,5.5189,0,0,0,0,0,5.4744,5.4751,5.4781,5.4749,5.4749,5.4652,5.4677,5.4656,5.4662,5.4576,5.4556,5.4585,5.4501,5.4503,5.4603,5.4714,5.4476,5.448,5.4869,5.4882,5.4893,5.5138,0,0,0,0,0,0,5.4745,5.4733,5.4778,5.4775,5.4685,5.4643,5.4632,5.4653,5.4586,5.4569,5.4559,5.4543,5.4507,5.4507,5.4509,5.4719,5.447,5.4474,5.4477,5.4879,5.4889,5.4898,0,0,0,0,0,0,5.4728,5.4731,5.4776,5.4701,5.4687,5.4635,5.4626,5.4694,5.4588,5.4573,5.4557,5.4553,5.4504,5.4511,5.4512,5.4623,5.4465,5.4469,5.4472,5.4473,5.4887,5.4895,0,0,0,0,0,0,5.4727,5.4729,5.4701,5.4691,5.4678,5.4629,5.4693,5.4702,5.4523,5.4578,5.4504,5.4495,5.4512,5.451,5.4515,5.4626,5.4624,5.4465,5.4468,5.447,5.4471,0,0,0,0,0,0,0,5.4727,5.4736,5.48,5.4683,5.4671,5.4741,5.474,5.4739,5.4521,5.4514,5.4506,5.4499,5.4442,5.4446,5.4451,5.4629,0,0,5.4465,5.4466,0,0,0,0,0,0,0,0,5.4733,5.4735,5.48,5.48,5.4799,5.474,5.474,5.4739,5.452,5.4514,5.4508,5.4502,5.4443,5.4446,5.445,0,0,0,0,0,0,0,0,0,0,0,0,0,0,0,5.48,5.48,0,5.474,5.474,5.4739,5.4519,5.4514,5.4509,5.4504,5.4444,5.4447,5.445,0,0,0,0,0,0,0,0,0,0,0,0,0,0,0,0,0,0,0,0,0,0,0,0,0,0,0,0,0,0,0,0,0,0,0,0,0,0,0,0,0,0,0,0,0,0,0,0,0,0,0,0,0,0,0,0,0,0,0,0,0,0,0,0,0,0,0,0,0]}],[{"header":{"parameterUnit":"kt","parameterCategory":2,"dx":1,"dy":1,"la1":30.253999710083008,"la2":30.299108505249023,"lo1":-89.0895004272461,"lo2":-89.04439544677734,"nx":28,"ny":28,"refTime":"2022-10-29T21:00:00:Z","depth":0,"parameterNumber":2,"parameterNumberName":"V-component_of_WINDS"},"data":[2.5827,2.5865,2.5889,2.5943,2.5974,2.6016,2.6038,2.607,2.6101,2.6152,2.6185,2.6214,2.6255,2.6301,2.6338,2.635,2.6365,2.6358,2.6374,2.6379,2.6382,2.6384,2.6378,2.6361,2.6361,2.6365,2.6365,2.6366,2.5824,2.5855,2.5891,2.5944,2.5974,2.5995,2.6038,2.6062,2.6098,2.6138,2.6173,2.622,2.626,2.6305,2.6348,2.6366,2.6379,2.6375,2.6376,2.6382,2.6388,2.6381,2.6364,2.6364,2.6364,2.6364,2.6364,2.6364,2.5824,2.5846,2.5893,2.5933,2.5966,2.6001,2.6026,2.6062,2.6098,2.6148,2.6171,2.6213,2.6258,2.6323,2.6352,2.6384,2.6393,2.6398,2.64,2.6401,2.6398,2.6387,2.6393,2.6393,2.6393,2.6393,2.6393,0,2.5833,2.5853,2.5891,2.5935,2.5966,2.6004,2.6043,2.6059,2.6111,2.6139,2.6181,2.621,2.6266,2.6309,2.6355,2.6385,2.6412,2.6417,2.6421,2.6411,2.6395,2.6404,2.6414,2.6418,2.6418,2.6418,2.6419,2.6419,2.5836,2.586,2.5922,2.5945,2.5974,2.601,2.6037,2.6082,2.6109,2.6164,2.6181,2.6224,2.6262,2.6325,2.6369,2.6411,2.6425,2.6423,2.6432,2.6419,2.6426,2.6425,2.6427,2.6422,2.6422,2.6421,2.6421,0,2.5836,2.588,2.5924,2.5986,2.6002,2.6023,2.6076,2.61,2.6134,2.6171,2.6183,2.6236,2.6277,2.6322,2.6379,2.6401,2.6435,2.6446,2.6419,2.6424,2.6428,2.6427,2.6432,2.6435,2.6452,2.6452,2.6451,0,2.5857,2.5886,2.595,2.5974,2.6007,2.6053,2.6084,2.6117,2.6159,2.619,2.6227,2.6254,2.6308,2.6342,2.6375,2.6411,2.6421,2.6441,2.645,2.6439,2.6436,2.6456,2.6458,2.6468,2.6468,2.6468,2.6468,0,2.5852,2.5922,2.596,2.5984,2.6054,2.6071,2.6101,2.6149,2.6176,2.6218,2.6236,2.6281,2.6306,2.634,2.6383,2.6386,2.6428,2.6442,2.6448,2.6447,2.6457,2.6457,2.6447,2.6468,2.6468,2.6468,2.6468,0,2.5878,2.592,2.597,2.6029,2.6046,2.6072,2.6121,2.6153,2.6202,2.6225,2.6259,2.6291,2.6327,2.6337,2.6387,2.638,2.6402,2.6424,2.6426,2.6434,2.6446,2.6436,2.6421,2.6422,2.6437,2.6437,2.6437,0,2.586,2.5923,2.5965,2.6012,2.6048,2.609,2.6119,2.6161,2.6195,2.623,2.6268,2.6308,2.6326,2.6345,2.6363,2.6404,2.6413,2.6404,2.6454,2.6455,2.6441,2.6427,2.6415,2.6419,2.6434,2.6434,2.6434,0,2.5853,2.5941,2.5947,2.5976,2.6041,2.6073,2.6106,2.6157,2.6178,2.6223,2.6253,2.631,2.6326,2.6359,2.6391,2.6407,2.6408,2.6423,2.6425,2.6419,2.6437,2.6424,2.6425,2.6425,2.6426,2.6426,2.6432,0,2.5881,2.592,2.5938,2.6003,2.6034,2.6067,2.6119,2.6145,2.6173,2.621,2.6254,2.6304,2.6357,2.6371,2.6399,2.6423,2.6427,2.6445,2.6462,2.6451,2.6455,2.6456,2.6452,2.6452,2.6453,2.6454,0,0,2.5854,2.5912,2.596,2.5996,2.6026,2.6071,2.6102,2.6137,2.6206,2.6226,2.6234,2.6324,2.6365,2.6415,2.6416,2.6437,2.6446,2.645,2.6456,2.6456,2.6456,2.6458,2.6459,2.6455,2.6455,2.6455,2.6455,0,2.5876,2.5917,2.5948,2.5986,2.6044,2.6082,2.6089,2.6156,2.6181,2.6227,2.6265,2.6298,2.6371,2.6409,2.6438,2.6443,2.6472,2.6455,2.6441,2.646,2.6459,2.6459,2.6461,2.6461,2.6457,2.6457,2.6457,0,2.588,2.5929,2.595,2.6022,2.6061,2.6099,2.6128,2.6167,2.6195,2.6246,2.6291,2.6326,2.6382,2.6423,2.6443,2.6453,2.6491,2.6489,2.6487,2.6491,2.6512,2.6511,2.651,2.6524,2.6524,2.6524,0,0,2.5892,2.593,2.5999,2.6031,2.6053,2.6111,2.6137,2.6169,2.6219,2.6239,2.6287,2.6334,2.6376,2.6404,2.6447,2.6484,2.65,2.6495,2.6492,2.6489,2.6492,2.6513,2.6511,2.6524,2.6524,2.6524,0,0,2.5899,2.5981,2.6001,2.6045,2.609,2.6162,2.6179,2.6206,2.6251,2.6254,2.631,2.6326,2.6365,2.6399,2.6393,2.6454,2.6469,2.6471,2.6431,2.6428,2.6425,2.6417,2.6433,0,0,0,0,0,2.595,2.597,2.5988,2.6003,2.6097,2.6152,2.6164,2.6212,2.6221,2.6233,2.6276,2.6305,2.6407,2.6403,2.6418,2.6425,2.6525,2.6525,2.6525,2.6481,2.6477,2.6474,0,0,0,0,0,0,2.5957,2.5976,2.5987,2.6059,2.608,2.6151,2.6177,2.6191,2.6221,2.6225,2.6296,2.6308,2.6349,2.6399,2.6411,2.6417,2.6429,2.6525,2.6525,2.6525,2.648,2.6477,2.6474,0,0,0,0,0,2.5962,2.5977,2.6115,2.6059,2.6078,2.6145,2.6177,2.6189,2.6213,2.6282,2.6294,2.6246,2.6348,2.6362,2.6407,2.641,2.642,2.6425,2.6525,2.6525,2.6525,2.6478,0,0,0,0,0,0,2.5966,2.5988,2.612,2.6127,2.6056,2.6142,2.6158,2.6186,2.6268,2.6281,2.6234,2.6237,2.6348,2.6359,2.6369,2.6405,2.6414,2.6418,2.6421,2.6525,2.6525,2.6525,0,0,0,0,0,0,2.5981,2.5994,2.6124,2.6117,2.6124,2.6139,2.6153,2.6199,2.6268,2.6216,2.6221,2.6235,2.6332,2.6356,2.6364,2.6434,2.6409,2.6413,2.6416,2.6418,2.6525,2.6525,0,0,0,0,0,0,2.5987,2.5999,2.6116,2.6121,2.6127,2.6214,2.6181,2.6274,2.6262,2.6212,2.6262,2.6263,2.6329,2.6338,2.6361,2.6426,2.6432,2.6409,2.6412,2.6414,2.6415,0,0,0,0,0,0,0,2.5993,2.5902,2.6075,2.6124,2.613,2.6196,2.6198,2.62,2.6262,2.6262,2.6262,2.6263,2.6384,2.6389,2.6394,2.6421,0,0,2.6408,2.641,0,0,0,0,0,0,0,0,2.5898,2.5901,2.6076,2.6077,2.6079,2.6196,2.6198,2.6199,2.6262,2.6262,2.6262,2.6263,2.6385,2.6389,2.6393,0,0,0,0,0,0,0,0,0,0,0,0,0,0,0,2.6076,2.6077,0,2.6196,2.6198,2.6199,2.6262,2.6262,2.6262,2.6262,2.6386,2.639,2.6393,0,0,0,0,0,0,0,0,0,0,0,0,0,0,0,0,0,0,0,0,0,0,0,0,0,0,0,0,0,0,0,0,0,0,0,0,0,0,0,0,0,0,0,0,0,0,0,0,0,0,0,0,0,0,0,0,0,0,0,0,0,0,0,0,0,0,0,0,0]}]]]